2018-096AD (43746 NORAD) Tracking and Keplerian Element Data

This shows tracking and keplerian element data for the satellite.

Feedback or suggestion? Click here.




ElementValue
Catalog43746
Name2018-096AD
Epoch Orbit174
Epoch Day344.45354242
Epoch Year2018
RAAN49.4668
Inclination97.4838
Eccentricity0.001995
Argument of Perigee288.4693
Mean Anonmoly170.2839
Mean Motion15.26651628
Decay Rate1.831E-05
L11 43746U 18096AD 18344.45354242 .00001831 00000-0 72379-4 0 9992
L22 43746 97.4838 49.4668 0019950 288.4693 170.2839 15.26651628 1740

Live tracking and technical data element details for 2018-096AD (NORAD 43746). 2018-096AD can be tracked NOW for your location showing map with azimuth and elevation plus other details from your city location.

Track the satellite on the map from your city or location and see movement details for azimuth, elevation, latitude, longitude, range, height, and movement on the map or in text.







IsCatalogInMostPopularTable: catalog: 43746, numindb: 2
Update: records affected: 1



GetName: 43746 2018-096AD

Hit Count: updated at: Tue, 11 Dec 2018 01:58:10 GMT